Location: Bogis-Bossey
(46.3500°N, 6.1667°E)
Time: 17:43:28
(UTC+00:00)

USA 306 - Pass Details

Date: 17 August 2022
Orbit: 540 x 550 km, 54.0° (Epoch: 31 August)

Event Time Altitude Azimuth Distance (km) Brightness Sun altitude
Rises 20:20:03 0° 270° (W) 2,717 7.2 -15.5°
Reaches altitude 10° 20:22:27 10° 280° (W) 1,823 6.4 -15.9°
Maximum altitude 20:26:13 33° 346° (NNW) 928 4.5 -16.4°
Drops below altitude 10° 20:30:00 10° 52° (NE) 1,819 5.4 -16.9°
Enters shadow 20:31:56 - 60° (ENE) 2,539 6.0 -17.1°
